BEIDOU-2 G7

Last updated on Jan. 15, 2021, 6:31 a.m. UTC

1 41586U 16037A   21014.93669507 -.00000362  00000-0  00000-0 0  9996
2 41586   1.9325  69.3028 0008781 359.9184 133.1214  1.00272545 16948
UTC
Height (km)
Latitude
Longitude
Inclination
Orbital Period
UTC large
Height (km)
Speed (km/s)
/
Latitude / Longitude
Inclination (degrees)
Orbital Period (minutes)
Azimuth
Elevation
Range (km)
Doppler Factor
iOS Compass Heading
iOS Angle

Next 30 passes for location: Hong Kong

Rise time Rise Azimuth (degrees) Set time Set Azimuth (degrees) Duration Max altitude (degrees)

No matching passes for this satellites